This is the latest recevied weather packets stored in our database for station/object KB4NWJ. If no packets are shown the sender has not sent any weather packets the latest 10 day(s).
| Time | Temp. | Humidity | Pressure | Rain* | Wind** | Luminosity | Snow |
|---|---|---|---|---|---|---|---|
| 1777297725 | 17.22° C | 86% | 1021.8 hPa | 0 mm | - | 113 W/m² | - |
| 1777297424 | 16.67° C | 86% | 1021.8 hPa | 0 mm | - | 209 W/m² | - |
| 1777297120 | 16.67° C | 87% | 1021.7 hPa | 0 mm | - | 90 W/m² | - |
| 1777296818 | 16.67° C | 86% | 1021.7 hPa | 0 mm | - | 141 W/m² | - |
| 1777296513 | 16.67° C | 86% | 1021.5 hPa | 0 mm | - | 166 W/m² | - |
| 1777296209 | 16.67° C | 86% | 1021.4 hPa | 0 mm | - | 132 W/m² | - |
| 1777295905 | 16.67° C | 86% | 1021.2 hPa | 0 mm | - | 138 W/m² | - |
| 1777295603 | 16.67° C | 86% | 1021.3 hPa | 0 mm | - | 179 W/m² | - |
| 1777295300 | 17.22° C | 86% | 1021.2 hPa | 0 mm | - | 165 W/m² | - |
| 1777294998 | 17.78° C | 84% | 1021 hPa | 0 mm | - | 151 W/m² | - |
| 1777294694 | 17.22° C | 85% | 1021 hPa | 0 mm | - | 251 W/m² | - |
| 1777294383 | 16.67° C | 87% | 1021.2 hPa | 0 mm | - | 122 W/m² | - |
| 1777294080 | 16.67° C | 87% | 1020.9 hPa | 0 mm | - | 111 W/m² | - |
| 1777293778 | 16.67° C | 87% | 1020.9 hPa | 0 mm | - | 102 W/m² | - |
| 1777293473 | 16.67° C | 87% | 1020.7 hPa | 0 mm | - | 102 W/m² | - |
| 1777293168 | 17.22° C | 87% | 1020.6 hPa | 0 mm | - | 88 W/m² | - |
| 1777292868 | 16.67° C | 87% | 1020.5 hPa | 0 mm | - | 201 W/m² | - |
| 1777292564 | 16.67° C | 88% | 1020.4 hPa | 0 mm | - | 73 W/m² | - |
| 1777292259 | 16.67° C | 88% | 1020.5 hPa | 0 mm | - | 64 W/m² | - |
| 1777291956 | 16.67° C | 88% | 1020.3 hPa | 0 mm | - | 57 W/m² | - |
| 1777291652 | 16.67° C | 88% | 1020.3 hPa | 0 mm | - | 54 W/m² | - |
| 1777291350 | 16.67° C | 88% | 1020.2 hPa | 0 mm | - | 52 W/m² | - |
| 1777291046 | 16.67° C | 88% | 1020.1 hPa | 0 mm | - | 50 W/m² | - |
| 1777290743 | 16.67° C | 88% | 1020.1 hPa | 0 mm | - | 61 W/m² | - |
| 1777290440 | 16.67° C | 89% | 1019.9 hPa | 0 mm | - | 51 W/m² | - |
* Rain latest hour (hover to see other rain measurements)
** Current wind speed in m/s (hover to see current wind gust speed)